Regional Weather Roundup
Issued by NWS

Home | Current Version | Previous Version | Graphics & Text | Print | Product List | Glossary On
Versions: 1 2 3 4 5 6 7 8 9 10 11 12 13 14 15 16 17 18 19 20 21 22 23 24 25 26 27 28 29 30 31 32 33 34 35 36 37 38 39 40 41 42 43 44 45 46 47 48 49 50
462
ASUS43 KDTX 062101
RWRMI
MICHIGAN HOURLY REGIONAL WEATHER ROUNDUP
NATIONAL WEATHER SERVICE DETROIT/PONTIAC MI
500 PM EDT FRI MAY 06 2016

NOTE: "FAIR" INDICATES FEW OR NO CLOUDS BELOW 12,000 FEET WITH NO
SIGNIFICANT WEATHER AND/OR OBSTRUCTION TO VISIBILITY.

MIZ047>049-052>055-059>063-066>070-074>076-081>083-062200-
SOUTHEAST LOWER MICHIGAN

CITY           SKY/WX    TMP DP  RH WIND       PRES   REMARKS
ADRIAN         SUNNY     70  42  36 W6        29.87F
ALMA           SUNNY     72  38  28 SW6       29.85F
ANN ARBOR      SUNNY     72  40  31 NW7       29.85F
BAD AXE        SUNNY     69  40  34 N5        29.86F
CARO           SUNNY     70  39  32 S3        29.85F
DETROIT CITY   SUNNY     69  40  34 E7        29.85F
DETROIT        MOSUNNY   72  40  31 NW8       29.85F
FLINT          SUNNY     74  41  30 W7        29.85F
GROSSE ILE     SUNNY     68  48  49 S8        29.84F
HILLSDALE      SUNNY     69  26  20 W7        29.88F
HOWELL         SUNNY     71  39  32 W6        29.86F

CITY           SKY/WX    TMP DP  RH WIND       PRES   REMARKS
JACKSON        SUNNY     71  32  23 NW9       29.86F
LAMBERTVILLE   SUNNY     73  42  32 N7        29.87F
LANSING        SUNNY     72  35  25 W7        29.87F
LAPEER         FAIR      71  33  24 N5        29.86F
MASON          SUNNY     70  36  28 W6        29.86F
MONROE         SUNNY     71  42  35 W3        29.85F
MT. CLEMENS    SUNNY     70  39  32 NE6       29.84F
PONTIAC        MOSUNNY   71  38  29 VRB6      29.85F
PORT HOPE        N/A     52  43  71 E5        29.87F
PORT HURON     SUNNY     68  37  32 NE6       29.86F
TRI CITIES     SUNNY     73  33  23 SW5       29.86F
MIDLAND        FAIR      74  38  27 S7        29.83F
TROY           SUNNY     73  36  26 N6        29.86F
SAGINAW HB     SUNNY     72  36  26 CALM      29.85F
$$
MIZ043>046-050>051-056>058-064>065-071>073-077>080-062200-
SOUTHWEST LOWER MICHIGAN

CITY           SKY/WX    TMP DP  RH WIND       PRES   REMARKS
BATTLE CREEK   SUNNY     72  39  30 VRB3      29.87F
BENTON HARBOR  PTSUNNY   72  36  26 SW13      29.87F
BIG RAPIDS     SUNNY     75  32  20 S6        29.83F
COLDWATER      SUNNY     71  39  31 CALM      29.88F
FREMONT        FAIR      73  31  21 SW10G16   29.85F
HOLLAND        SUNNY     70  39  32 W10       29.87F
GRAND RAPIDS   MOSUNNY   75  40  28 SW8       29.86F
IONIA          FAIR      72  37  28 SW5       29.85F
KALAMAZOO      SUNNY     73  40  30 W5        29.87F
LUDINGTON      SUNNY     68  40  35 SW14      29.84F
MARSHALL       SUNNY     72  37  27 S7        29.86F
MOUNT PLEASANT SUNNY     74  39  27 SW5       29.83F
MUSKEGON       PTSUNNY   68  34  28 SW15      29.87F
$$
MIZ016>042-062200-
NORTHERN LOWER MICHIGAN

CITY           SKY/WX    TMP DP  RH WIND       PRES   REMARKS
ALPENA         MOSUNNY   63  40  42 E12       29.82F
BEAVER ISLAND  MOSUNNY   71  34  25 SW13G18   29.79F
BELLAIRE       SUNNY     78  38  23 SW6       29.78F
CADILLAC       SUNNY     76  40  28 SW6       29.82F
CHARLEVOIX     SUNNY     62  43  49 NW7       29.82F
FRANKFORT      SUNNY     65  40  39 SW10G20   29.81F
GAYLORD        SUNNY     77  37  23 SW8       29.80F
GRAYLING       SUNNY     78  40  25 SW7       29.81F
HARBOR SPRINGS SUNNY     65  42  43 SW3       29.79F
HOUGHTON LAKE  SUNNY     75  36  24 SW5       29.82F
MANISTEE       SUNNY     75  39  27 SW13      29.82F
OSCODA         SUNNY     70  25  18 S10G21    29.84F
PELLSTON       SUNNY     77  38  24 S10       29.79F
ROGERS CITY    SUNNY     69  43  38 SE8       29.80F
TRAVERSE CITY  MOSUNNY   80  40  23 VRB6      29.77F
$$
MIZ007>008-015-062200-
EASTERN UPPER MICHIGAN

CITY           SKY/WX    TMP DP  RH WIND       PRES   REMARKS
KINROSS          N/A     72  36  26 SW12      29.79F
MACKINAC ISLAN SUNNY     62  33  34 E12       29.80F
NEWBERRY       SUNNY     69  39  33 S15G21    29.78F
S. S. MARIE    SUNNY     74  38  27 SW15      29.77F
MUNISING         N/A     74  41  30 S17G30    29.69F
$$
MIZ004>006-011>014-085-062200-
CENTRAL UPPER MICHIGAN

CITY           SKY/WX    TMP DP  RH WIND       PRES   REMARKS
MANISTIQUE     MOSUNNY   51  39  61 S8        29.78F
ESCANABA       SUNNY     57  43  58 S9        29.74F
MENOMINEE      SUNNY     70  46  43 E16       29.73F
SAWYER-GWINN   MOSUNNY   75  48  38 S16       29.69F
$$
MIZ001>003-009>011-084-062200-
WESTERN UPPER MICHIGAN

CITY           SKY/WX    TMP DP  RH WIND       PRES   REMARKS
IRON MOUNTAIN  MOSUNNY   90  37  15 W14G29    29.67F
HOUGHTON       MOSUNNY   88  35  15 W20G25    29.61F
COPPER HARBOR    N/A     74  43  32 SW9G18    29.60F
IRONWOOD         N/A     88  39  18 SW10G21   29.61F
$$

ABBREVIATIONS USED IN REMARKS
   TC - TEMPERATURE IN CELSIUS
  WCI - WIND CHILL INDEX
   HX - HEAT INDEX
  VSB - VISIBILITY





USA.gov is the U.S. government's official web portal to all federal, state and local government web resources and services.